ICEYE-X44

导读 | 星芒AI

ICEYE-X44 是 ICEYE 公司发射的一颗合成孔径雷达(SAR)卫星,具备高分辨率成像能力,可在任何天气和光照条件下提供地球表面的实时图像。该卫星采用小型卫星平台,增强了 ICEYE 的全球监测能力,支持防灾减灾、环境监测和安全应用。其先进雷达技术提升了数据获取频率和图像质量,为政府和商业客户提供关键决策支持。

基本信息
目录编号:
62707
目录名称:
ICEYE-X44
国际标识:
2025-009DC
轨道中心:
EARTH
卫星名称:
ICEYE-X44
卫星全名:
ICEYE-X44
卫星状态:
在轨 (已飞行335 天)
发射日期:
2025-01-14 UTC
国别 :
美国 (US)
星等 :
--
轨道信息
数据来源 国际轨道数据 AOE轨道数据
星历时间 2025-12-15T03:20:02+0800
23小时前
查看轨道信息
2025-12-11T06:00:00+0800
4天前
查看轨道信息
半长轴 6961.615km 6961.747km
偏心率 0.000195 0.0002355
轨道倾角 97.724° 97.724°
近地点辐角 53.449° 69.475°
升交点赤经 65.889° 62.060°
平近点角 306.691° 258.701°
近地点 582.122km 581.972km
远地点 584.838km 585.252km
周期 96.344分钟 96.347分钟
每日圈数 14.94644 14.946017
详细信息
使用方式:
暂无
2D轨道图
3D轨道图
轨道高度分析图
轨道倾角分析图
轨道综合分析图
查看轨道综合分析图